Regional Weather Roundup
Issued by NWS Jackson, KY

Home | Current Version | Previous Version | Graphics & Text | Print | Product List | Glossary On
Versions: 1 2 3 4 5 6 7 8 9 10 11 12 13 14 15 16 17 18 19 20 21 22 23 24 25 26 27 28 29 30 31 32 33 34 35 36 37 38 39 40 41 42 43 44 45 46 47 48 49 50
000
ASUS43 KJKL 182110
RWRJKL

EAST KENTUCKY HOURLY WEATHER ROUNDUP
NATIONAL WEATHER SERVICE JACKSON KY
400 PM EST SAT NOV 18 2017

NOTE: "FAIR" INDICATES FEW OR NO CLOUDS BELOW 12,000 FEET WITH
NO SIGNIFICANT WEATHER AND/OR OBSTRUCTIONS TO VISIBILITY.

* THESE REPORTS ARE NOT UNDER NWS QUALITY CONTROL AND MAY NOT
  REPORT WEATHER SUCH AS PRECIPITATION AND FOG.

KYZ079-080-083-085-087-088-110-112-115-119-120-182200
...EASTERN KENTUCKY...

CITY           SKY/WX    TMP DP  RH WIND       PRES   REMARKS
JACKSON        CLOUDY    62  50  64 S10G25    29.49F
LONDON         CLOUDY    64  52  64 S21G36    29.50F
SOMERSET*      CLOUDY    59  52  77 S15G23    29.48F
MONTICELLO*    LGT RAIN  58  56  93 SE12G23   29.50F
WILLIAMSBURG*  CLOUDY    64  54  68 S14G31    29.54F
MIDDLESBORO*   DRIZZLE   58  53  83 S3G17     29.62F
HARLAN APT*    CLOUDY    61  52  72 S5G17     29.61F
PIKE CO APT*   CLOUDY    64  51  64 S10G21    29.52F
BIG SANDY APT* CLOUDY    65  51  60 S14G28    29.49F
MOREHEAD APT*  CLOUDY    64  52  63 SW26G35   29.40F
$$

KYZ035-036-041-042-044-050-067-078-099-182200
...CENTRAL KENTUCKY...

CITY           SKY/WX    TMP DP  RH WIND       PRES   REMARKS
MT STERLING*   CLOUDY    63  54  72 SW22G32   29.40F
FLEMING/MASON* LGT RAIN  63  55  75 SW21G37   29.36F
DANVILLE*      CLOUDY    61  55  82 SW21G32   29.42S
LEXINGTON      CLOUDY    63  56  78 S24G38    29.38F
FRANKFORT      CLOUDY    65  56  72 S22G37    29.34F
LOUISVILLE     LGT RAIN  67  59  75 S17G31    29.30F
LEBANON*       CLOUDY    63  57  82 S25G33    29.38R
GLASGOW*       CLOUDY    64  61  90 SW15G28   29.42R
BOWLING GREEN  CLOUDY    67  62  84 SW21G31   29.41S
$$

KYZ091>093-OHZ055-061-077-WVZ005-015-034-035-042-182200
...SOUTHERN OHIO/WEST VIRGINIA...

CITY           SKY/WX    TMP DP  RH WIND       PRES   REMARKS
COVINGTON      CLOUDY    64  59  83 S17G31    29.27F
COLUMBUS       CLOUDY    63  55  75 S18G30    29.27F
DAYTON         LGT RAIN  62  59  90 S20G28    29.23F
WILMINGTON     CLOUDY    63  57  81 SW24G39   29.26F
HUNTINGTON     CLOUDY    66  49  54 S17G29    29.42F
CHARLESTON     CLOUDY    68  48  48 S23G33    29.43F
PINEVILLE*     CLOUDY    63  49  59 MISG      29.63F
BECKLEY        CLOUDY    60  47  61 SW23G33   29.59F
BLUEFIELD      CLOUDY    58  43  57 SW17G26   29.66F
LOGAN CO APT*  CLOUDY    63  50  63 S14G28    29.52F
$$

VAZ002-007-008-TNZ017-027-036-066-071-182200
...SOUTHWEST VIRGINIA/EAST TENNESSEE...

CITY           SKY/WX    TMP DP  RH WIND       PRES   REMARKS
WISE*          CLOUDY    54  50  87 S18G25    29.64F
JONESVILLE*    CLOUDY    61  54  77 SW15G25   29.65F
ABINGDON*      CLOUDY    62  46  55 W6        29.67F
BRISTOL        CLOUDY    60  45  57 NW6       29.66F
MORRISTOWN*    CLOUDY    64  54  68 SW17G25   29.63F
SEVIERVILLE*   CLOUDY    66  52  59 SW10G20   29.64F
KNOXVILLE      CLOUDY    64  56  75 S22G32    29.62F
LAFOLLETTE*    CLOUDY    63  54  72 SW15G22   29.62F
OAK RIDGE      CLOUDY    63  56  78 S9G20     29.63F
CROSSVILLE     CLOUDY    60  53  77 S9G24     29.58F
NASHVILLE      CLOUDY    66  62  87 SW14G24   29.50F
$$

...KEY TO REMARKS...
VSB - VISIBILITY IN MILES
WCI - WIND CHILL INDEX
HX  - HEAT INDEX

$$



USA.gov is the U.S. government's official web portal to all federal, state and local government web resources and services.